Regional Weather Roundup
Issued by NWS

Home | Current Version | Previous Version | Text Only | Print | Product List | Glossary Off
Versions: 1 2 3 4 5 6 7 8 9 10 11 12 13 14 15 16 17 18 19 20 21 22 23 24 25 26 27 28 29 30 31 32 33 34 35 36 37 38 39 40 41 42 43 44 45 46 47 48 49 50

000
ASUS43 KMKX 230711
RWRWI

WISCONSIN REGIONAL WEATHER ROUNDUP
NATIONAL WEATHER SERVICE MILWAUKEE/SULLIVAN WI
200 AM CDT THU OCT 23 2014

NOTE: "FAIR" INDICATES FEW OR NO CLOUDS BELOW 12,000 FEET WITH NO
SIGNIFICANT WEATHER AND/OR OBSTRUCTIONS TO VISIBILITY.

WIZ001-002-006>008-014>016-023>028-230800-
NORTHWEST WISCONSIN

CITY           SKY/WX    TMP DP  RH WIND       PRES   REMARKS
SUPERIOR ARPT  MOCLDY    52  40  61 S8        29.99F
ASHLAND        CLOUDY    48  45  89 SW7       30.04F
HAYWARD        CLOUDY    48  40  73 S8        30.05F
SIREN          CLOUDY    53  38  58 S9G16     30.01F
CUMBERLAND     CLOUDY    46  39  76 SE9       30.04F
RICE LAKE      CLOUDY    48  41  78 SE10      30.07F
CHETEK         CLOUDY    47  42  83 E6        30.07F
LADYSMITH      LGT RAIN  47  43  85 S9        30.11S
EAU CLAIRE     CLOUDY    50  42  74 S8        30.08S
MENOMONIE      CLOUDY    48  42  80 E5        30.07S
NEW RICHMOND   CLOUDY    51  39  63 S8        30.03S
OSCEOLA        LGT RAIN  52  41  64 SE6       30.04F
$$

WIZ003>005-009-010-017-018-230800-
NORTH CENTRAL WISCONSIN

CITY           SKY/WX    TMP DP  RH WIND       PRES   REMARKS
MANITOWISH WTR PTCLDY    44  37  76 S8        30.09F
ARBOR VITAE    CLOUDY    46  37  72 S10       30.11S
WOODRUFF       CLOUDY    46  37  72 S10       30.11S
RHINELANDER    CLOUDY    43  36  76 S7        30.14F
EAGLE RIVER    MOCLDY    40  35  81 S5        30.12S
LAND O LAKES   MOCLDY    43  37  78 S6        30.12S
PHILLIPS       CLOUDY    48  36  62 S8        30.09F
TOMAHAWK       CLOUDY    42  37  81 CALM      30.14S
MEDFORD        MOCLDY    43  36  76 SE7       30.13S
MERRILL        MOCLDY    41  38  89 CALM      30.15S
$$

WIZ029-030-035-036-043>047-230800-
CENTRAL WISCONSIN

CITY           SKY/WX    TMP DP  RH WIND       PRES   REMARKS
WAUSAU         CLOUDY    41  38  89 SE5       30.15F
MOSINEE        PTCLDY    37  37 100 SE8       30.16F WCI  31
MARSHFIELD     MOCLDY    43  36  76 S6        30.14S
STEVENS POINT  CLEAR     37  35  94 SE3       30.17F
WAUPACA        CLEAR     37  35  93 CALM      30.20S FOG
WAUTOMA        CLEAR     32  31  96 CALM      30.19F FOG
WISC RAPIDS    MOCLDY    41  37  86 SE7       30.17F
CAMP DOUGLAS   PTCLDY    36  36 100 E6        30.14F WCI  32
$$

WIZ011>013-019>022-031-037>040-048>050-230800-
NORTHEAST WISCONSIN

CITY           SKY/WX    TMP DP  RH WIND       PRES   REMARKS
ANTIGO         FOG       37  37 100 S8        30.16F VSB 1   WCI  30
SHAWANO        PTCLDY    36  34  94 CALM      30.20F FOG
OCONTO         CLEAR     41  40  96 S5        30.21S
STURGEON BAY   CLEAR     39  36  87 S7        30.22F WCI  34
GREEN BAY      CLEAR     38  36  92 S5        30.21F WCI  34
MANITOWOC      CLEAR     38  37  97 S3        30.23F
APPLETON       CLEAR     37  36  93 S6        30.21S WCI  33
CLINTONVILLE   FOG       32  32 100 CALM      30.20F VSB 1/4
OSHKOSH        CLEAR     36  35  96 S3        30.20F
$$

WIZ032>034-041-042-053>061-230800-
SOUTHWEST WISCONSIN

CITY           SKY/WX    TMP DP  RH WIND       PRES   REMARKS
LA CROSSE      CLOUDY    50  44  80 SE13      30.11F
SPARTA         CLOUDY    51  35  53 W5        30.15R
VIROQUA        CLOUDY    47  37  66 SW5       30.15R
BOSCOBEL       PTCLDY    41  36  82 CALM      30.16F
PRAIRIE DU CHI CLOUDY    49  38  66 E7        30.13F
PLATTEVILLE    PTCLDY    42  35  77 CALM      30.17F
$$

WIZ056-057-062-063-064-067-068-230800-
SOUTH CENTRAL WISCONSIN

CITY           SKY/WX    TMP DP  RH WIND       PRES   REMARKS
REEDSBURG      CLEAR     44  35  71 CALM      30.16S
BARABOO/DELLS  CLEAR     41  35  77 S7        30.17S
LONE ROCK      PTCLDY    45  35  68 E8        30.17F
MINERAL POINT  PTCLDY    43  34  70 SE9       30.16F
MADISON        CLEAR     39  35  86 SE6       30.21S WCI  35
MIDDLETON      CLEAR     38  36  94 SE3       30.19F
WATERTOWN      CLEAR     36  36  97 CALM      30.21S
MONROE         CLEAR     37  34  87 S8        30.19S WCI  31
JANESVILLE     CLEAR     36  32  87 SE6       30.21S WCI  31
$$

WIZ051-052-058>065-066-070>072-230800-
SOUTHEAST WISCONSIN

CITY           SKY/WX    TMP DP  RH WIND       PRES   REMARKS
MILWAUKEE      CLEAR     35  31  85 SE3       30.23F
WAUKESHA       CLEAR     34  34 100 S3        30.23S
MILWAUKEE/TIMM CLEAR     32  30  93 CALM      30.24F
RACINE         CLEAR     33  30  88 CALM      30.25F
BURLINGTON     FOG       27  27 100 CALM      30.22F VSB 1/4
KENOSHA        CLEAR     32  32 100 CALM      30.23F FOG
FOND DU LAC    CLEAR     36  33  89 S7        30.21F WCI  30
SHEBOYGAN      FOG       29  29 100 CALM      30.23F VSB 1/4
WEST BEND      CLEAR     32  32 100 CALM      30.23S FOG
JUNEAU         CLEAR     36  35  95 SE9       30.22S FOG     WCI  29
$$

LSZ147-162-230800-
LAKE SUPERIOR

STATION/POSITION TIME  TEMP    WIND        PRES    WAVE
                       AIR SEA DIR/SP/G            HT/PER
                 (UTC) (F)     (DEG/KT/KT) (MB)    (FT/S)
W MID LAKE BUOY  0650   48 46  150/ 12/ 14 1018.1F   2/ 3
DEVILS ISLAND    0700   52     170/  7/  8 1017.0F
PORT WING        0600   53     180/  4/  6 1016.6F
SAXON HARBOR     0600   54     170/  5/ 20 1016.9
$$

LMZ867-665-643>646-230800-
LAKE MICHIGAN

STATION/POSITION TIME  TEMP    WIND        PRES    WAVE
                       AIR SEA DIR/SP/G            HT/PER
                 (UTC) (F)     (DEG/KT/KT) (MB)    (FT/S)
CHAMBERS ISLAND  0600   44     150/  5/  9 1023.7F
N MID LAKE BUOY  0650   47 51  190/ 12/ 14 1024.0F   1/ 3
NORTHPORT PIER   0600   41     180/  2/  5 1023.7F
SISTER BAY       0628          150/  8/ 10   N/A
ALGOMA LAKESHORE 0641          220/ 21/ 23   N/A
KEWAUNEE LAKESHO 0600   46     200/  7/  9 1022.8F
SHEBOYGAN LAKESH 0700   48 51  180/ 14/ 15 1024.1F
PORT WASHINGTON  0640   40     270/  3/  4 1024.4F
ATWATER BUOY     0700   47     170/  8/  8 1024.6F
MILWAUKEE LAKESH 0600   45     220/  5/  5   N/A
S MID LAKE BUOY  0650   50 54  170/ 12/ 14 1024.8F   1/ 3
KENOSHA   LAKESH 0700   44     180/  3/  4 1023.7F
$$

TC  - TEMPERATURE IN CELSIUS
VSB - VISIBILITY IN STATUTE MILES
WCI - WIND CHILL INDEX
HX  - HEAT INDEX




USA.gov is the U.S. government's official web portal to all federal, state and local government web resources and services.